Location: Recife
(8.0585°S, 34.8848°W)
Time: 11:31:43
(UTC-03:00)

Courier 1B - Pass Details

Date: 21 April 2026
Orbit: 962 x 1209 km, 28.3° (Epoch: 15 May)

Event Time Altitude Azimuth Distance (km) Brightness Sun altitude
Exits shadow 02:04:28 18° 99° (E) 2,424 9.9 -49.0°
Drops below altitude 10° 02:06:16 10° 104° (ESE) 3,003 10.5 -48.5°
Sets 02:09:15 0° 109° (ESE) 4,001 11.3 -47.8°
